Regional Weather Roundup
Issued by NWS Portland, ME

Current Version | Previous Version | Text Only | Print | Product List | Glossary On
Versions: 1 2 3 4 5 6 7 8 9 10 11 12 13 14 15 16 17 18 19 20 21 22 23 24 25 26 27 28 29 30 31 32 33 34 35 36 37 38 39 40 41 42 43 44 45 46 47 48 49 50
000 ASUS41 KGYX 311210 RWRGYX WEATHER ROUNDUP FOR MAINE AND NEW HAMPSHIRE NATIONAL WEATHER SERVICE GRAY ME 800 AM EDT FRI OCT 31 2014 MEZ002-005-006-010-012-015-018-020-021-024-026-027-029-311300- MAINE CITY SKY/WX TMP DP RH WIND PRES REMARKS PORTLAND CLOUDY 40 35 83 CALM 30.06R 6HR MIN TEMP: 34; 6HR MAX TEMP: 40; SANFORD CLOUDY 39 34 81 CALM 30.06R BAR HARBOR CLEAR 37 36 93 N3 30.05R WISCASSET CLOUDY 32 31 96 CALM 30.08R 6HR MIN TEMP: 29; 6HR MAX TEMP: 32; ROCKLAND CLEAR 36 30 80 W5 30.05R FRYEBURG CLOUDY 32 31 96 CALM 30.05R 6HR MIN TEMP: 25; 6HR MAX TEMP: 32; LEWISTONAUBURN CLOUDY 34 30 86 CALM 30.05R AUGUSTA CLOUDY 37 29 72 CALM 30.06R 6HR MIN TEMP: 35; 6HR MAX TEMP: 38; WATERVILLE CLOUDY 34 28 80 CALM 30.03R BANGOR MOCLDY 34 31 88 CALM 30.05R 6HR MIN TEMP: 32; 6HR MAX TEMP: 36; GREENVILLE N/A 31 26 82 N5 29.99R 6HR MIN TEMP: 31; 6HR MAX TEMP: 36; MILLINOCKET CLOUDY 37 34 89 CALM 30.05R 6HR MIN TEMP: 35; 6HR MAX TEMP: 37; HOULTON CLOUDY 36 34 92 CALM 30.03R 6HR MIN TEMP: 35; 6HR MAX TEMP: 38; PRESQUE ISLE CLOUDY 34 30 86 CALM 30.02S 6HR MIN TEMP: 30; 6HR MAX TEMP: 36; FRENCHVILLE CLOUDY 34 28 79 CALM 30.01R 6HR MIN TEMP: 33; 6HR MAX TEMP: 35; CARIBOU CLOUDY 36 31 82 CALM 30.02R 6HR MIN TEMP: 34; 6HR MAX TEMP: 39; $$ NHZ002-005-008-009-011-012-014-311300- NEW HAMPSHIRE CITY SKY/WX TMP DP RH WIND PRES REMARKS PORTSMOUTH MOCLDY 42 35 75 N5 30.05R ROCHESTER CLOUDY 40 36 86 CALM 30.05R 6HR MIN TEMP: 37; 6HR MAX TEMP: 41; NASHUA CLOUDY 42 38 86 CALM 30.05R MANCHESTER CLOUDY 43 35 73 NW3 30.04R 6HR MIN TEMP: 42; 6HR MAX TEMP: 44; CONCORD CLOUDY 39 37 92 CALM 30.05R 6HR MIN TEMP: 37; 6HR MAX TEMP: 39; LACONIA CLOUDY 41 36 81 CALM 30.03R PLYMOUTH CLOUDY 37 37 100 CALM 30.05R BERLIN CLOUDY 36 34 92 CALM 30.02R 6HR MIN TEMP: 35; 6HR MAX TEMP: 38; WHITEFIELD CLOUDY 37 34 89 CALM 30.03R 6HR MIN TEMP: 36; 6HR MAX TEMP: 38; JAFFREY CLOUDY 37 35 92 CALM 30.03R 6HR MIN TEMP: 33; 6HR MAX TEMP: 39; LEBANON CLOUDY 40 36 86 CALM 30.04R 6HR MIN TEMP: 40; 6HR MAX TEMP: 42; MT WASHINGTON FOG 18 18 100 NW17 N/A VSB 1/16WCI 2 6HR MIN TEMP: 17; 6HR MAX TEMP: 24; $$ VTZ005-007-008-311300- VERMONT CITY SKY/WX TMP DP RH WIND PRES REMARKS ST JOHNSBURY N/A 37 35 92 MISG 30.03R MONTPELIER CLEAR 30 28 92 CALM 30.06R BURLINGTON MOCLDY 38 35 89 CALM 30.06R $$ MAZ007-012-024-CTZ003-RIZ002-NYZ038-NYZ072-311300- SOUTHERN NEW ENGLAND AND NY CITY SKY/WX TMP DP RH WIND PRES REMARKS BOSTON MOCLDY 45 36 70 N7 30.04R WORCESTER CLOUDY 40 32 73 N8 30.02R NANTUCKET MOCLDY 50 44 80 NE8 30.00R PROVIDENCE PTCLDY 44 38 79 N3 30.03R HARTFORD PTCLDY 34 30 85 CALM 30.03S ALBANY FOG 32 30 92 CALM 30.06R VSB 1/8 NEW YORK CITY MOCLDY 46 33 60 N7 30.02S $$ ANZ081-ANZ082-ANZ150-NHZ014-MEZ023>029-311300- COASTAL MARINE OBSERVATIONS STATION/POSITION TIME TEMP WIND PRES WAVE AIR SEA DIR/SP/G HT/PER (UTC) (F) (DEG/KT/KT) (MB) (FT/S) MOUNT DESERT ROC 1200 46 1016.8R MATINICUS ROCK 1200 330/ 13/ 15 1016.9R PORTLAND WX BUOY 1150 47 53 30/ 12/ 14 1017.3R 2/ 7 WELLS 1100 42 51 10/ 5/ 7 1016.4R ISLE OF SHOALS 1200 48 50/ 12/ 14 1016.9R JEFFREYS LEDGE 1121 54 N/A 3/ 8 CASHES LEDGE BUO 1150 48 54 360/ 10/ 12 1016.8R 2/ 8 $$ .............KEY.............. WCI - WIND CHILL TC - TEMPERATURE IN CELSIUS VSB - VISIBILITY IN MILES HX - HEAT INDEX FAIR- INDICATES FEW OR NO CLOUDS BELOW 12,000 FT, WITH NO SIGNIFICANT WEATHER AND/OR OBSTRUCTIONS TO VISIBILITY.

USA.gov is the U.S. government's official web portal to all federal, state and local government web resources and services.